Погода в Кагуле

Погода в Кагуле : погода сейчас, прогноз погоды и архив. Всё, что Вы хотите узнать о погоде в Кагуле!

Поиск расширенной информации на нашем сайте:

Другие новости

Новости СМИ2

Главная страница сайта

Новости сайта

03.07.2017

Напоминаем, что на нашем специализированном сайте Метеоцентр.Азия вы можете получить высокодетализированные автоматические прогнозы погоды по пунктам России, СНГ и мира в авиационном формате (включающие направление и скорость ветра, видимость, явления погоды, количество и форму облачности, нижнюю и верхнюю границу облачности).


Погода в Кагуле - сегодня

Время (UTC), дата Ветер
(°,м/с) 
Видим.   Явления Облачность Т
(°С)
Тd
(°С)
f(%) Тe
(°С)
Pmin
(гПа)
dP
(гПа)
Po
(мм)
O2
(г/м3)
Тmin Tmax R s Состояние
почвы
18 17.06.18 030 (СВ) 10 км  в посл. час ливневой дождь{гроза}  9/6 600 м кучево-дожд., средняя 
[Cb cap|Ac lent]
+20.2 +19.5 96 +38  1011  1.8  748  276    +2.6  0.3     
21 17.06.18 340 (С) 4000 м  дымка{ливн. осадки}  10/5 600 м кучево-дожд., средняя 
[Cb cap|Ac lent]
+18.8 +18.3 97 +35  1011.3  0.3  748  278           
00 18.06.18 350 (С) 4000 м  дымка{ливн. осадки}  10/10 600 м 
[Sc]
+18.7 +18.4 98 +35  1011.3  748  278           
03 18.06.18 360 (С) 0200 м  туман  ?/?  
+18.4 +18.4 100 +34  1011.2  -0.1  748  278           
06 18.06.18 360 (С) 2000 м  в посл. час туман  10/10 600 м 
[Sc]
+19.1 +18.8 98 +36  1011.9  0.7  749  278  +18.3    0.6     
09 18.06.18 360 (С) 4000 м  дымка  10/10 1000 м 
[Sc]
+22.7 +19.9 84 +41  1012.1  0.3  749  274           
12 18.06.18 360 (С) 20000 м    6/3 1000 м верхняя 
[Cu med, cong|Ci fib]
+28.2 +18.3 55 +43  1010.9  -0.9  748  269           
15 18.06.18 030 (СВ) 20000 м    4/4 1000 м 
[Cu med, cong]
+29.2 +14.6 41 +37  1010.3  -0.6  748  269           
18 18.06.18 160 (Ю) 10 км  {гроза, ливн. осадки}  3/3 600 м кучево-дожд. 
[Cb calv]
+23.7 +12.7 50 +29  1011.8  1.3  749  275    +2.9  0.4     
21 18.06.18 010 (С) 10 км    ясно 
+21.6 +12.5 56 +26  1013.8  1.8  750  278           
00 19.06.18 360 (С) 10 км    ясно 
+20 +11.2 57 +23  1013.9  0.1  750  280           
03 19.06.18 020 (С) 10 км    ясно 
+17.2 +11.7 70 +21  1014.8  0.7  751  282           
06 19.06.18 360 (С) 20000 м    ясно 
+22 +13.9 60 +29  1015.9  1.3  752  278  +16.2         
09 19.06.18 030 (СВ) 20000 м    ясно 
+29.3 +9.4 29 +30  1015.7  0.1  752  272           
12 19.06.18 060 (СВ) 20000 м    1/1 1000 м 
[Cu hum]
+30.7 +7.8 24 +31  1015.1  -0.5  752  271           
15 19.06.18 060 (СВ) 20000 м    3/3 1000 м 
[Cu hum]
+29.3 +8.9 28 +29  1014.7  -0.5  751  272           
18 19.06.18 050 (СВ) 20000 м    3/0 средняя 
[Ac lent]
+26.3 +12.4 42 +31  1015.4  0.6  752  274    +31.2       
21 19.06.18 010 (С) 10 км    ясно 
+23.4 +12.7 51 +28  1016.7  1.2  753  277           
00 20.06.18 360 (С) 10 км    ясно 
+20.7 +14.6 68 +29  1017.7  0.9  753  279           
03 20.06.18 010 (С) 10 км    ясно 
+19.2 +14.9 76 +28  1018.3  0.5  754  281           
06 20.06.18 340 (С) 20000 м    ясно 
+24 +18 69 +38  1018.8  0.7  754  275  +18.7         
09 20.06.18 070 (В) 20000 м    6/6 1000 м 
[Cu med, cong]
+30.4 +16.4 43 +41  1018.5  754  270           
12 20.06.18 340 (С) 20000 м    8/8 1000 м 
[Cu med, cong]
+31 +17.3 44 +44  1017.7  -0.8  754  269           
15 20.06.18 350 (С) 20000 м    6/6 1000 м 
[Cu med, cong]
+29.8 +16.3 44 +41  1016.8  -0.9  753  270           
18 20.06.18 020 (С) 10 км    8/3 1000 м средняя, верхняя 
[Sc|Ac trans|Ci fib]
+27.7 +17.6 54 +41  1017  0.1  753  272    +32.2       
Время (UTC), дата Ветер
(°,м/с) 
Видим.   Явления Облачность Т
(°С)
Тd
(°С)
f(%) Тe
(°С)
Pmin
(гПа)
dP
(гПа)
Po
(мм)
O2
(г/м3)
Тmin Tmax R s Состояние
почвы

Для получения пояснительной информации подведите курсор к названию столбца.

ПОГОДА в Кагуле - архив

Всё, что Вы хотите узнать о погоде в Кагуле - удобно и подробно!

Выберите нужную дату (начиная с 1 января 2015* года) и нажмите кнопку "Найти".
Будут отображены архивные сводки погоды по пункту Кагул, начиная с указанной даты.


Отображать данные в формате CSV (для использования в таблицах Excel)


Внимание! Наш архив погоды предназначен исключительно для личного некоммерческого использования в познавательных целях. Если Вам необходимы официальные справки о состоянии погоды (для производственных, юридических, коммерческих и т.п. целей), обращайтесь в органы Росгидромета.

*Примечание: данная дата относится к архиву по метеостанциям СССР (Россия, СНГ, Балтия).
Архив по метеостанциям Зарубежной Европы и Азии (кроме Китая) хранится 10 дней, по другим регионам земного шара (Китай, Африка, Америка, Австралия, Океания) - 1 день.

Кагул - район местоположения метеостанции


Название, широта, долгота, высота метеостанции:
Кагул 45.9°ш. 28.2°д. 39 м над ур. моря [Украина]

Дополнительная информация

В oтличие oт бoльшинства пoгoдных сайтoв мы публикуем пoдрoбную метеoинфoрмацию в детальнoм прoфессиoнальнoм фoрмате.

Характеристики температуры и влажнoсти вoздуха измеряются на высoте 2 м в тени вдали oт зданий и деревьев.
Скoрoсть ветра измеряется на высoте 10 м (на урoвне рoста челoвека скoрoсть ветра ниже в 1.5-2 раза). Если метеoстанция нахoдится в гoрoде или в лесу, тo скoрoсть ветра занижена на 2-4 м/с пo сравнению с oткрытым местoм. Скoрoсть ветра над акватoриями крупных рек и oзёр, а также на вершинах хoлмoв на 2-5 м/с выше, чем в oбычных услoвиях.
Атмoсфернoе давление в разных тoчках местнoсти мoжет значительнo oтличаться oт давления на метеoстанции, в зависимoсти oт услoвий рельефа (при пoдъёме на 10 м давление пoнижается примернo на 1 мм рт.ст.).